      5   01 50.70  -15 02.7    1.290   1.262    65.8   45.5   12.6   +30.8   37

.2

                    m1 = 11.0 + 5 log △ + 10.0 log r

NAKANO

         **** Don't distribute anyone except personal use only ****

                (C) Copyright 2004 OAA/ComputingSection

write mail from CFAD0::NAKANO on 2004-12-28 23:14:25(JST).

 







◎C/2004 V13の軌道と予報位置です



  SWANイメ−ジ上に見つかった新彗星ですが,年末には,観測できそうです.

最後の4個の観測は,こちらで測定したものです.12月17日14:42のイメ−ジ

からは,彗星は 3.1等となります.



    C/2004 V13 (SWAN)                                                     

T 2004 Dec. 21.34781 TT                                 Nakano

q   0.1864998            (2000.0)            P               Q

                   Peri.   91.70333     +0.42541724     +0.86023804

                   Node   209.24916     -0.86989625     +0.47435617

e   1.0            Incl.   35.11949     +0.24960106     +0.18702068

From 18 observations 2004 Nov. 9-Dec. 17.



 19h JST R.A.(2000) Decl.    Delta   r      Mot./PA   Elong. Mag.  PA/Tail   At 

twilight

           h  m       。  ,                    ,     。    。    m1      。 。     h 

。    A 。

Dec. 15  16 56.06  -20 12.7  1.220  0.293  174.2/ 82    9.0   4.6  292/4.34  -23

.7   81.4

     16  17 08.27  -19 46.6  1.208  0.266  182.5/ 82    7.6   4.2  299/4.04  -21

.9   80.7

     17  17 21.04  -19 19.5  1.194  0.241  190.9/ 82    6.2   3.7  311/3.70  -20

.0   80.0

     18  17 34.37  -18 52.5  1.180  0.219  198.8/ 83    5.3   3.3  330/3.46  -17

.9   79.2

     19  17 48.25  -18 27.5  1.163  0.202  204.8/ 85    5.0   2.9  354/3.61  -15

.8   78.3

     20  18 02.56  -18 06.9  1.143  0.190  207.5/ 87    5.6   2.6   19/4.40  -13

.6   77.3

     21  18 17.07  -17 53.3  1.120  0.187  206.2/ 89    6.9   2.5   36/5.71  -11

.5   76.1

     22  18 31.51  -17 48.4  1.095  0.191  201.9/ 92    8.6   2.5   48/7.18   -9

.5   74.8

     23  18 45.65  -17 52.5  1.067  0.204  196.3/ 94   10.4   2.7   56/8.50   -7

.7   73.5

     24  18 59.38  -18 04.3  1.040  0.222  190.9/ 96   12.2   3.0   62/9.55   -6

.0   72.0

     25  19 12.72  -18 21.9  1.013  0.244  186.6/ 97   13.9   3.4   67/10.4   -4

.4   70.6

     26  19 25.75  -18 43.7  0.988  0.269  183.3/ 98   15.7   3.8   70/11.0   -3

.0   69.1

     27  19 38.56  -19 08.0  0.965  0.296  181.1/ 99   17.4   4.1   73/11.4   -1

.7   67.6

     28  19 51.23  -19 33.5  0.944  0.323  179.6/ 99   19.2   4.5   75/11.8   -0

.5   66.1

     29  20 03.81  -19 59.5  0.925  0.351  178.5/ 99   20.9   4.8   77/12.1   +0

.8   64.6

     30  20 16.36  -20 24.9  0.909  0.380  177.7/ 98   22.7   5.1   79/12.4   +1

.9   63.1

     31  20 28.90  -20 49.4  0.894  0.408  177.0/ 98   24.5   5.4   80/12.6   +3

.1   61.6

Jan.  1  20 41.43  -21 12.2  0.882  0.436  176.2/ 97   26.3   5.6   81/12.8   +4

.3   60.1

      2  20 53.96  -21 33.1  0.871  0.463  175.3/ 97   28.1   5.9   81/12.9   +5

.4   58.6

      3  21 06.47  -21 51.6  0.863  0.491  174.1/ 96   29.9   6.1   82/13.0   +6

.6   57.2

      4  21 18.94  -22 07.4  0.857  0.518  172.7/ 95   31.8   6.3   82/13.0   +7

.7   55.7

      5  21 31.34  -22 20.5  0.852  0.545  170.9/ 94   33.6   6.5   82/13.0   +8

.8   54.3

      6  21 43.64  -22 30.5  0.849  0.572  168.8/ 93   35.4   6.7   82/13.0  +10

.0   52.9

      7  21 55.82  -22 37.5  0.848  0.598  166.3/ 92   37.2   6.9   82/12.9  +11

.1   51.6

      8  22 07.82  -22 41.5  0.849  0.624  163.5/ 91   38.9   7.1   82/12.8  +12

.2   50.3

      9  22 19.64  -22 42.4  0.851  0.649  160.3/ 90   40.7   7.3   82/12.6  +13

.3   49.0

     10  22 31.22  -22 40.5  0.855  0.675  156.9/ 89   42.3   7.5   82/12.4  +14

.3   47.9

     11  22 42.55  -22 35.7  0.860  0.700  153.3/ 88   44.0   7.6   82/12.2  +15

.4   46.7

     12  22 53.60  -22 28.4  0.867  0.725  149.4/ 87   45.6   7.8   81/11.9  +16

.4   45.6

     13  23 04.35  -22 18.6  0.875  0.749  145.4/ 86   47.1   8.0   81/11.7  +17

.4   44.6

     14  23 14.78  -22 06.7  0.884  0.773  141.2/ 85   48.6   8.1   81/11.4  +18

.3   43.6

     15  23 24.89  -21 52.8  0.895  0.797  137.0/ 84   50.0   8.3   80/11.1  +19

.3   42.8

NAKANO

         **** Don't distribute anyone except personal use only ****

                (C) Copyright 2004 OAA/ComputingSection

write mail from CFAD0::NAKANO on 2004-12-18 02:21:14(JST).

 



戻ります。